Location: Cheyres
(46.8153°N, 6.7877°E)
Time: 10:00:00
(UTC+00:00)

Gbstr 26 Del rocket - Pass Details

Date: 23 September 2021
Orbit: 492 x 1263 km, 51.8° (Epoch: 18 October)

Event Time Altitude Azimuth Distance (km) Brightness Sun altitude
Exits shadow 23:31:55 11° 73° (ENE) 3,067 6.7 -43.6°
Drops below altitude 10° 23:32:08 10° 73° (ENE) 3,135 6.8 -43.6°
Sets 23:34:52 0° 77° (ENE) 4,028 7.4 -43.6°
